This is the latest recevied weather packets stored in our database for station/object WV8BRW. If no packets are shown the sender has not sent any weather packets the latest 10 day(s).
| Time | Temp. | Humidity | Pressure | Rain* | Wind** | Luminosity | Snow |
|---|---|---|---|---|---|---|---|
| 1778075683 | 15.56° C | 99% | 1007.8 hPa | 0 mm | - | 58 W/m² | - |
| 1778075379 | 15.56° C | 99% | 1007.7 hPa | 1.27 mm | - | 62 W/m² | - |
| 1778075075 | 15.56° C | 99% | 1007.7 hPa | 1.27 mm | - | 69 W/m² | - |
| 1778074772 | 15.56° C | 99% | 1007.6 hPa | 0 mm | - | 72 W/m² | - |
| 1778074469 | 15.56° C | 99% | 1007.5 hPa | 0 mm | - | 69 W/m² | - |
| 1778074166 | 15.56° C | 99% | 1007.2 hPa | 0 mm | - | 61 W/m² | - |
| 1778073863 | 15.56° C | 99% | 1007.2 hPa | 1.78 mm | - | 61 W/m² | - |
| 1778073561 | 15.56° C | 99% | 1006.9 hPa | 1.78 mm | - | 56 W/m² | - |
| 1778073257 | 15.56° C | 99% | 1007.1 hPa | 0 mm | - | 45 W/m² | - |
| 1778072954 | 15° C | 99% | 1007.2 hPa | 0 mm | - | 44 W/m² | - |
| 1778072650 | 15° C | 99% | 1006.8 hPa | 1.78 mm | - | 43 W/m² | - |
| 1778072349 | 15° C | 99% | 1006.7 hPa | 1.78 mm | - | 49 W/m² | - |
| 1778072047 | 15° C | 99% | 1006.8 hPa | 0 mm | - | 35 W/m² | - |
| 1778071745 | 15° C | 99% | 1006.7 hPa | 1.27 mm | - | 36 W/m² | - |
| 1778071441 | 15° C | 99% | 1006.7 hPa | 1.27 mm | - | 35 W/m² | - |
| 1778071139 | 15° C | 99% | 1006.4 hPa | 0 mm | - | 36 W/m² | - |
| 1778070837 | 15° C | 99% | 1006.4 hPa | 0 mm | - | 24 W/m² | - |
| 1778070534 | 15° C | 99% | 1006.9 hPa | 0 mm | - | 22 W/m² | - |
| 1778070231 | 15° C | 99% | 1006.5 hPa | 0 mm | - | 19 W/m² | - |
| 1778069929 | 15° C | 99% | 1006.4 hPa | 0 mm | - | 22 W/m² | - |
| 1778069626 | 15° C | 99% | 1006.5 hPa | 0 mm | - | 20 W/m² | - |
| 1778069323 | 15° C | 99% | 1006.4 hPa | 0 mm | - | 15 W/m² | - |
| 1778069021 | 15° C | 99% | 1006 hPa | 0 mm | - | 12 W/m² | - |
| 1778068718 | 14.44° C | 99% | 1006.3 hPa | 0 mm | - | 10 W/m² | - |
| 1778068416 | 14.44° C | 99% | 1006.3 hPa | 0 mm | - | 11 W/m² | - |
* Rain latest hour (hover to see other rain measurements)
** Current wind speed in m/s (hover to see current wind gust speed)